San Antonio, TX

12:05 AM CST on February 25, 2017 (GMT -0600)
Stinson Municipal

Weather History for KSSF - April, 2013

Change the Weather History Date:

Monday, April 22, 2013

  Actual Average Record
Temperature  
Mean Temperature 72 °F -  
Max Temperature 86 °F 80 °F 97 °F (2009)
Min Temperature 61 °F 61 °F 50 °F (2012)
Cooling Degree Days 8    
Growing Degree Days 22 (Base 50)    
Moisture  
Dew Point 59 °F    
Average Humidity 71    
Maximum Humidity 94    
Minimum Humidity 36    
Precipitation  
Precipitation 0.00 in - - ()
Sea Level Pressure  
Sea Level Pressure 30.00 in    
Wind  
Wind Speed 9 mph (SE)    
Max Wind Speed 15 mph    
Max Gust Speed 26 mph    
Visibility 10 miles    
Events      
Averages and records for this station are not official NWS values.
T = Trace of Precipitation, MM = Missing Value Source: NWS Daily Summary

Daily Weather History Graph

Daily Weather History Graph

Search for Another Location

Airport or City:

Trip Planner

Search our weather history database for the weather conditions in past years. The results will help you decide how hot, cold, wet, or windy it might be!

Date:

Astronomy

Apr. 22, 2013 Rise Set
Actual Time 7:00 AM CDT 8:04 PM CDT
Civil Twilight 6:35 AM CDT 8:29 PM CDT
Nautical Twilight 6:06 AM CDT 8:58 PM CDT
Astronomical Twilight 5:36 AM CDT 9:29 PM CDT
Moon 5:08 PM CDT (4/22) 4:40 AM CDT (4/22)
Length of Visible Light 13h 54m
Length of Day
13h 04m
Waxing Gibbous, 88% of the Moon is Illuminated
Apr 22
Waxing Gibbous
Apr 25
Full
May 2
Last Quarter
May 9
New
May 17
First Quarter

Hourly Weather History & Observations

Time (CDT) Temp. Heat Index Dew Point Humidity Pressure Visibility Wind Dir Wind Speed Gust Speed Precip Events Conditions
12:53 AM 64.0 °F - 59.0 °F 84% 30.08 in 10.0 mi ESE 11.5 mph - N/A   Overcast
1:53 AM 64.0 °F - 57.9 °F 80% 30.07 in 10.0 mi ESE 10.4 mph - N/A   Overcast
2:53 AM 63.0 °F - 59.0 °F 87% 30.06 in 10.0 mi ESE 10.4 mph - N/A   Overcast
3:22 AM 62.6 °F - 59.0 °F 88% 30.07 in 10.0 mi SE 10.4 mph - N/A   Overcast
3:53 AM 62.1 °F - 59.0 °F 90% 30.04 in 10.0 mi SE 12.7 mph - N/A   Overcast
4:11 AM 62.6 °F - 59.0 °F 88% 30.06 in 10.0 mi ESE 9.2 mph - N/A   Overcast
4:53 AM 62.1 °F - 59.0 °F 90% 30.04 in 10.0 mi ESE 6.9 mph - N/A   Overcast
5:53 AM 61.0 °F - 59.0 °F 93% 30.04 in 9.0 mi ESE 4.6 mph - N/A   Overcast
6:53 AM 61.0 °F - 59.0 °F 93% 30.05 in 9.0 mi ESE 4.6 mph - N/A   Overcast
7:53 AM 62.1 °F - 60.1 °F 93% 30.06 in 9.0 mi ESE 4.6 mph - N/A   Overcast
8:39 AM 62.6 °F - 60.8 °F 94% 30.09 in 10.0 mi SE 5.8 mph - N/A   Overcast
8:53 AM 64.0 °F - 60.1 °F 87% 30.07 in 10.0 mi SSE 6.9 mph - N/A   Overcast
9:31 AM 66.2 °F - 60.8 °F 83% 30.09 in 10.0 mi SE 5.8 mph - N/A   Overcast
9:53 AM 66.0 °F - 61.0 °F 84% 30.07 in 10.0 mi ESE 4.6 mph - N/A   Overcast
10:05 AM 66.2 °F - 60.8 °F 83% 30.09 in 10.0 mi SE 8.1 mph - N/A   Overcast
10:28 AM 69.8 °F - 60.8 °F 73% 30.09 in 10.0 mi SSE 9.2 mph - N/A   Mostly Cloudy
10:39 AM 69.8 °F - 60.8 °F 73% 30.08 in 10.0 mi Variable 3.5 mph - N/A   Mostly Cloudy
10:53 AM 70.0 °F - 60.1 °F 71% 30.07 in 10.0 mi South 10.4 mph - N/A   Overcast
11:53 AM 73.9 °F - 60.1 °F 62% 30.05 in 10.0 mi SSW 8.1 mph - N/A   Mostly Cloudy
12:11 PM 73.4 °F - 59.0 °F 61% 30.06 in 10.0 mi South 9.2 mph 16.1 mph N/A   Overcast
12:53 PM 75.0 °F - 57.9 °F 55% 30.03 in 10.0 mi South 11.5 mph - N/A   Overcast
1:53 PM 77.0 °F - 59.0 °F 54% 29.99 in 10.0 mi SSW 11.5 mph 16.1 mph N/A   Overcast
2:53 PM 81.0 °F 81.1 °F 57.9 °F 45% 29.94 in 10.0 mi SSW 12.7 mph - N/A   Mostly Cloudy
3:53 PM 84.0 °F 83.3 °F 57.0 °F 40% 29.90 in 10.0 mi South 15.0 mph 18.4 mph N/A   Scattered Clouds
4:53 PM 84.0 °F 83.0 °F 55.9 °F 38% 29.86 in 10.0 mi SSE 10.4 mph - N/A   Clear
5:53 PM 84.9 °F 83.6 °F 55.0 °F 36% 29.84 in 10.0 mi South 12.7 mph - N/A   Clear
6:53 PM 84.0 °F 82.9 °F 55.0 °F 37% 29.83 in 10.0 mi SSE 10.4 mph - N/A   Clear
7:53 PM 81.0 °F 80.7 °F 55.0 °F 41% 29.83 in 10.0 mi SE 6.9 mph - N/A   Clear
8:53 PM 78.1 °F - 55.0 °F 45% 29.85 in 10.0 mi SE 9.2 mph - N/A   Clear
9:53 PM 73.9 °F - 61.0 °F 64% 29.88 in 10.0 mi SE 11.5 mph 26.5 mph N/A   Clear
10:53 PM 71.1 °F - 62.1 °F 73% 29.90 in 10.0 mi SE 12.7 mph 19.6 mph N/A   Clear
11:53 PM 68.0 °F - 62.1 °F 81% 29.89 in 10.0 mi SE 12.7 mph - N/A   Clear